Vorticity
1 1 2 5 7 5 5 0 -4 9 9 3 7 2 6 -1 6 28 -0 -4 22 24 14 -2 6 11 -4 3 8 -5 -5 -0 1 -3 -6 2 5 3 1 -3 -4 -3 0 2 4 4 3 2 4 5 6 5 1 -0 1 1 1 3 4 5 7 7 6 6 6 6 6 7 9 8 8 8 6 5 5 6 7 6 6 6 5 5 6 6 6 5 5 5 5 5 5 6 6 6 7 7 7
2 2 2 1 7 8 6 5 -5 0 10 -1 -2 3 10 -1 -8 8 0 11 26 18 13 6 10 9 2 9 13 4 3 5 1 -0 2 4 2 2 4 -0 -3 -4 -2 2 3 4 3 2 4 6 7 6 3 1 -0 0 0 2 3 3 6 6 7 6 6 6 5 6 9 8 7 8 7 6 5 6 6 6 6 5 5 5 5 6 5 5 5 4 4 4 5 5 6 7 7 7 6
2 5 5 4 5 6 2 5 0 -5 4 1 -5 -5 0 -3 -15 -4 8 14 9 -5 -8 6 18 8 8 13 10 7 1 1 3 4 4 1 1 1 1 2 0 -3 -3 1 3 4 4 2 3 5 7 7 5 2 1 1 -0 2 3 3 5 5 6 7 6 5 6 5 7 8 8 7 7 6 6 6 6 7 6 6 5 5 5 5 5 4 4 4 4 4 4 5 5 6 6 6 5
-2 4 6 7 4 8 4 2 3 -3 3 3 0 -9 -9 4 2 4 13 9 3 4 -8 -7 13 10 2 5 6 3 1 1 3 4 3 4 5 3 6 6 2 0 -2 -2 2 4 5 3 3 5 7 8 7 4 1 1 0 1 3 3 4 4 5 7 6 5 5 5 6 8 8 7 6 7 6 6 6 7 6 6 6 5 5 4 5 4 4 4 4 5 4 6 5 5 4 4 5
-6 -2 3 4 -0 7 4 4 5 -1 -1 2 2 -12 2 23 1 -13 5 16 -2 -2 13 0 -7 1 -1 4 8 1 4 1 0 4 2 5 5 0 -1 -2 -1 4 2 -1 1 3 6 4 3 5 8 9 7 6 3 1 1 0 2 4 4 4 4 6 6 6 6 5 5 7 8 7 7 7 6 6 6 6 7 6 6 5 5 4 5 4 4 4 4 5 5 6 6 5 4 4 5
-4 -6 1 4 -0 2 0 4 3 1 -0 -1 -4 -10 23 30 -3 -11 6 19 0 -9 23 29 1 1 7 7 11 2 3 3 2 5 0 2 3 5 -0 -4 2 7 9 5 2 3 6 6 6 6 8 10 8 6 4 2 -0 0 3 4 5 3 4 4 6 6 6 5 5 6 7 7 7 7 6 6 5 6 7 7 6 5 5 5 4 5 4 4 4 5 6 7 6 5 5 4 5
0 -9 -4 4 6 7 4 5 -1 3 3 -1 -11 -4 28 7 -20 -9 16 25 16 14 4 15 12 -1 7 -2 -4 -3 0 7 2 0 -2 -2 2 8 3 -2 2 4 8 9 5 4 6 7 8 8 8 8 6 5 2 2 0 2 4 5 5 3 4 4 5 6 6 6 5 6 7 7 6 7 7 6 6 5 6 7 7 6 6 5 4 4 4 4 4 5 6 7 6 5 5 4 4
5 -8 -10 -4 6 8 6 6 -1 4 6 7 -15 -1 29 -1 -11 -9 16 9 -11 37 20 9 13 -8 14 6 -7 -4 -1 6 2 3 0 4 14 7 -3 -1 4 3 3 9 9 4 7 8 7 7 7 5 2 2 2 4 4 4 4 6 6 3 5 4 4 6 6 6 4 5 6 7 6 7 7 6 6 4 5 6 7 7 6 5 5 4 4 5 4 5 6 6 7 6 5 5 5
7 -0 -11 -10 5 3 1 3 1 5 10 18 -21 -11 30 -2 -1 0 11 -4 -30 30 25 13 18 -4 17 16 12 11 3 3 -2 5 5 11 14 -8 -10 -0 -1 -2 -2 6 10 7 8 7 8 6 3 2 1 3 6 8 8 8 7 7 8 5 6 5 5 6 5 5 4 4 5 7 7 6 7 6 6 4 5 5 6 7 6 6 5 5 4 5 5 5 6 6 7 6 6 5 5
5 7 -5 -12 2 -0 -2 3 3 5 4 20 -18 -28 25 -4 -21 -0 7 -5 -10 20 5 2 7 -7 3 1 15 19 10 10 3 5 3 4 -2 -14 -3 1 -2 1 2 9 11 8 9 6 7 4 -0 1 3 6 7 9 9 10 10 9 10 9 8 7 6 5 5 4 3 4 5 7 8 6 6 7 6 5 4 4 6 6 6 6 5 5 5 5 5 6 6 6 6 6 6 6 6
8 8 6 -9 -5 -2 -0 6 3 5 -2 14 1 -28 13 2 -24 13 21 -0 9 15 -1 5 -1 -5 3 -5 1 5 6 9 5 4 1 0 -1 2 7 4 7 8 6 13 12 7 9 8 5 2 0 4 4 5 5 8 10 11 12 12 13 13 10 8 7 5 5 4 4 5 5 7 8 7 6 7 6 6 5 4 5 6 7 7 6 6 5 6 6 6 6 6 6 6 6 6 7
12 5 10 -0 -4 -4 -2 10 4 4 2 6 10 -7 8 -1 -15 31 26 -11 -1 0 -2 11 5 1 7 8 7 4 8 8 5 5 5 8 8 11 10 7 8 4 3 10 12 9 10 7 5 1 1 5 4 4 5 8 11 13 16 15 16 16 13 10 8 6 5 4 5 5 6 7 8 8 6 6 7 6 6 4 4 5 6 6 7 7 6 6 6 7 7 7 7 6 6 6 6
16 10 6 2 -0 -2 -6 7 6 0 6 8 1 -13 3 -8 -16 31 15 -25 -18 -14 -3 8 6 5 3 4 6 3 3 3 4 5 4 4 3 3 0 -2 -1 3 10 13 10 9 11 8 3 1 2 5 5 4 6 7 10 13 16 17 17 18 15 12 9 6 5 4 5 5 6 7 8 8 7 6 6 7 7 4 4 4 5 6 6 6 6 6 6 6 7 8 7 7 6 5 6
13 17 11 3 -2 2 -2 1 8 4 -1 9 -0 -29 -3 2 -11 18 6 -8 -1 -12 -6 3 2 6 3 -3 -1 3 -1 -2 1 3 4 1 0 1 -3 -1 7 15 16 14 11 9 11 7 2 1 2 5 6 5 7 7 7 10 12 14 14 13 12 10 8 6 4 4 4 6 6 7 8 8 8 7 7 7 6 5 4 4 4 5 6 7 7 6 6 6 6 7 7 7 6 6 6
3 10 13 7 3 4 1 -1 6 11 -3 1 12 -14 -10 -4 -13 3 -0 5 10 -3 0 2 -5 -5 3 3 1 3 -2 -1 2 3 8 8 9 10 4 5 16 18 14 12 10 10 9 4 1 1 2 6 6 5 6 5 5 7 8 10 10 10 10 8 6 6 5 5 6 7 7 7 9 9 9 8 7 7 6 6 5 4 4 4 6 6 6 6 5 6 6 7 7 7 6 6 6
1 2 9 11 15 11 1 3 -1 7 6 -1 10 -6 -13 -7 -7 -3 -0 7 -3 -2 12 2 -3 2 6 2 -2 -0 -5 -2 4 4 8 5 2 4 0 8 16 2 -0 9 12 11 6 3 0 0 3 4 6 6 4 1 -1 2 4 6 8 8 8 7 7 7 8 9 9 8 8 8 10 11 10 9 8 8 7 6 5 4 4 3 4 5 5 5 5 5 6 6 6 7 6 7 7
3 3 10 10 15 17 8 9 2 3 9 7 8 -4 -16 -15 -1 2 -5 5 -1 0 11 -4 -4 9 7 3 3 1 -1 3 7 5 6 5 2 6 6 16 14 -10 -12 1 10 12 5 2 -1 1 4 2 5 6 5 0 -5 -7 -4 1 4 6 6 6 6 8 10 10 10 9 9 10 11 12 10 10 9 8 7 6 6 5 5 4 3 3 4 5 5 4 5 5 5 6 5 5 7
5 4 9 10 6 10 8 10 13 8 5 5 5 8 -9 -42 -18 13 -5 -4 9 7 10 0 -5 7 7 2 3 -2 -5 -5 -4 -5 -3 1 1 7 12 12 1 -14 -10 -4 6 13 6 2 -1 2 2 1 3 4 6 5 0 -6 -7 -5 -3 3 5 5 5 5 8 8 9 9 10 12 11 11 9 9 8 8 7 7 7 6 6 5 4 3 4 5 4 4 4 3 4 5 6 7 8
5 4 5 8 5 2 3 7 16 15 11 11 8 15 14 -10 -2 19 1 -5 7 2 8 15 4 11 13 4 7 9 9 -1 -5 -4 -2 4 -0 -0 5 6 3 -2 -3 -4 6 12 7 2 -1 3 1 -0 3 2 5 6 7 4 -0 -3 -6 -0 3 5 5 4 5 6 8 8 10 11 10 10 8 8 8 8 8 7 8 7 7 5 4 4 5 5 3 5 4 3 7 9 10 11 10
2 4 4 4 1 -4 2 3 7 13 13 23 30 10 -3 18 23 13 12 6 4 -3 -3 12 6 5 5 1 7 12 18 13 9 6 4 14 11 4 0 2 8 7 6 3 8 12 8 3 1 3 -1 0 3 3 5 4 7 8 6 4 -0 1 2 4 5 3 4 4 6 7 9 9 9 8 7 9 8 8 8 8 8 7 7 5 5 6 7 7 7 8 6 5 10 10 10 10 9
1 3 3 2 -2 -5 5 0 -6 2 4 23 46 18 -12 10 16 15 32 8 -6 4 0 10 7 -5 -7 -3 8 10 13 12 10 8 4 11 12 9 4 3 4 2 13 14 9 11 8 4 3 3 -1 1 4 5 7 6 7 7 8 8 6 6 2 3 6 3 3 4 5 7 7 7 7 6 8 11 9 9 8 7 8 6 7 8 8 8 8 8 8 8 8 9 9 7 8 8 7
2 4 0 1 2 -0 7 -2 -8 -1 11 28 27 18 12 7 -2 6 28 5 -8 8 9 19 18 5 5 8 12 9 9 9 7 7 5 6 10 12 8 5 2 2 17 17 7 10 9 5 2 1 -1 1 5 7 9 8 8 7 9 8 8 8 3 3 5 3 3 4 5 7 6 6 6 6 11 10 7 8 6 8 9 6 8 9 9 8 8 5 4 8 9 9 5 2 5 4 6
3 4 1 0 2 5 5 -6 -1 4 19 36 4 -1 17 9 11 11 11 5 -2 5 6 12 14 12 14 8 3 2 4 3 3 6 2 1 8 16 13 5 5 10 17 12 8 9 6 4 2 -1 -1 0 4 7 8 9 9 8 9 8 8 8 3 3 5 3 2 2 5 7 6 6 5 8 12 7 4 5 6 10 8 8 11 9 10 8 8 6 7 10 5 5 4 0 3 4 6
4 4 2 1 2 5 3 -7 3 0 7 31 7 -2 -0 -6 25 27 6 -1 -3 8 8 4 9 11 12 8 4 7 6 -2 0 7 -0 -1 6 15 20 16 14 16 14 10 9 8 5 4 2 -1 -2 -0 4 6 8 8 9 10 10 7 7 6 3 4 5 3 2 2 5 5 6 8 7 8 10 6 5 5 6 9 4 6 11 10 10 7 6 7 9 8 4 10 9 3 5 5 7
6 6 1 1 3 3 2 -5 2 -2 -9 4 1 4 -1 -10 14 15 -3 -4 1 11 5 -4 2 6 4 6 7 8 12 9 8 7 -0 4 10 12 19 19 15 12 9 7 6 6 6 4 2 -1 -2 0 4 7 7 7 7 9 10 7 6 5 4 4 4 3 2 3 4 4 7 9 8 7 6 4 8 8 5 6 2 2 8 9 9 7 5 8 10 10 12 13 2 1 7 6 7
5 6 0 0 3 3 4 -0 2 4 -1 1 5 9 8 -0 3 4 -0 2 4 6 11 4 -5 3 3 -1 5 9 13 10 4 3 3 13 16 11 10 11 15 12 6 5 5 6 5 3 1 -1 -1 3 7 8 6 7 7 7 9 8 5 4 5 4 4 3 2 3 2 4 9 8 7 5 4 4 9 8 1 3 5 6 8 7 9 6 4 12 17 14 11 1 -7 4 10 6 7
5 3 1 1 3 4 5 6 4 3 -0 -2 -0 -1 2 1 -7 2 9 11 7 -4 11 13 -8 1 4 -0 3 -0 3 2 1 8 8 15 19 11 3 4 13 11 6 5 4 5 4 2 1 0 3 6 9 9 6 7 7 6 7 8 6 5 5 4 4 2 1 2 2 6 9 5 5 5 5 6 8 6 1 4 6 7 9 10 11 7 7 16 16 11 5 -3 1 10 8 5 6
5 3 3 3 4 5 3 7 9 11 5 -14 -19 -9 4 6 -2 7 5 9 17 -6 -6 3 -1 6 2 2 5 -2 11 15 9 14 14 12 7 -2 -3 4 11 10 7 5 3 4 2 0 2 3 5 8 10 9 6 6 7 6 6 8 7 6 6 5 4 2 3 2 3 7 5 3 9 8 7 7 5 5 5 6 6 8 11 10 10 10 14 16 11 14 9 1 8 9 5 6 6
5 2 3 4 4 5 3 3 2 6 11 -3 -4 3 -2 -8 -9 1 -0 2 8 -8 -4 6 2 8 1 -1 7 12 26 24 9 9 12 14 5 -4 1 7 10 9 5 2 1 2 1 1 3 3 4 6 8 9 6 5 7 6 6 8 7 7 6 5 5 3 3 3 4 8 5 8 14 9 7 8 4 6 8 7 8 10 10 8 9 10 13 13 12 10 -1 0 11 7 6 7 5
7 3 2 4 5 6 2 3 1 -4 0 3 11 10 -7 -17 -19 -17 -8 6 6 -5 10 16 -3 1 7 3 8 11 7 1 3 7 7 11 11 8 7 6 4 5 4 2 2 2 1 2 2 2 4 6 6 7 7 5 7 7 6 8 6 6 6 5 6 6 7 8 8 9 10 13 13 8 7 7 5 6 8 10 11 8 8 10 12 11 13 19 18 -3 -12 7 13 4 6 6 6
6 5 5 2 0 3 -1 -1 2 -1 -1 1 7 13 7 -2 -7 -11 -13 1 14 4 3 8 -2 -2 4 5 10 5 -11 -11 2 9 8 8 8 4 3 5 6 5 2 0 1 1 1 2 2 2 3 5 6 7 6 6 8 7 6 7 5 4 7 6 7 9 11 16 16 12 12 13 11 8 7 7 8 9 10 10 8 5 9 15 16 14 17 26 19 -8 -5 13 8 4 8 5 7
5 4 3 2 -0 1 2 0 1 1 3 1 -3 4 11 5 2 1 -12 -15 1 7 3 6 6 0 -3 -5 -4 -2 2 12 11 8 12 11 8 8 5 6 7 5 2 1 2 1 1 1 1 2 4 4 6 7 7 7 7 7 5 5 5 5 6 6 5 7 9 14 15 9 7 9 9 7 6 9 12 13 11 6 4 6 11 16 17 14 16 21 4 -13 2 12 5 7 8 7 8
6 5 1 3 4 4 4 1 2 2 2 4 -0 2 10 8 4 4 3 -5 -10 -5 -1 5 8 2 1 -5 -13 -9 2 10 4 0 9 10 7 10 7 4 4 5 3 -0 0 1 2 2 1 2 4 5 6 8 8 8 7 6 5 4 5 6 5 6 7 8 8 8 8 4 2 7 9 7 7 12 13 10 6 5 5 8 11 10 14 20 22 14 -7 -10 9 12 7 8 8 11 7
6 6 4 5 5 6 7 3 4 3 2 5 7 13 12 3 3 2 9 9 -3 -4 -5 0 7 4 6 -1 -9 -1 -2 -3 3 6 7 5 1 2 4 1 1 4 5 2 1 2 1 -1 2 4 5 6 7 8 9 9 8 5 4 5 6 6 7 9 11 13 10 7 8 7 5 8 9 8 10 13 9 4 3 7 7 9 12 7 12 21 12 -3 -7 3 14 10 7 8 8 9 5
6 7 5 6 5 5 7 5 5 6 11 9 9 26 18 2 12 10 5 10 10 9 0 -1 5 2 6 -1 -4 15 12 2 9 7 0 1 1 1 3 -1 -3 -0 -0 -2 -4 -3 -1 -3 0 4 5 8 7 8 11 8 6 5 3 5 7 7 10 12 13 14 12 9 8 8 7 8 9 9 13 11 3 -1 2 6 8 10 11 6 9 11 -2 -5 6 12 11 9 8 7 7 9 12
8 9 7 6 5 5 5 7 9 9 18 6 -11 11 13 -1 14 20 15 17 24 26 5 -2 5 -0 5 9 8 18 14 3 4 3 -2 -4 -3 -1 -2 -3 -1 -0 -2 -2 -3 -5 -2 -1 1 4 6 9 9 9 10 5 4 6 5 8 11 10 12 15 14 12 11 10 7 6 6 8 9 8 11 10 -0 -3 1 6 10 12 12 11 11 7 2 7 12 9 9 10 7 6 11 13 15
13 10 9 9 6 5 5 7 7 -1 4 2 -14 -0 18 17 21 26 23 13 16 28 8 -8 4 5 7 13 10 0 -9 -10 -7 0 3 -7 -10 -3 -1 1 2 -2 -2 -1 -2 -2 0 1 -0 3 8 10 11 9 6 5 5 7 8 10 13 13 14 15 14 11 9 8 5 5 8 8 6 6 9 11 7 3 5 7 9 10 12 13 11 9 9 10 7 7 11 10 5 8 14 13 11
21 14 9 9 8 10 7 9 15 4 -3 8 10 2 -0 3 3 3 12 7 1 13 12 -2 -0 6 5 6 13 8 -7 -10 -6 2 10 3 -3 0 -1 3 8 10 14 8 -0 3 4 3 2 4 10 11 9 7 5 6 7 8 10 11 15 16 13 11 10 9 7 5 3 6 10 8 5 6 8 10 12 9 6 7 6 7 12 13 10 10 11 9 8 9 10 9 6 10 15 11 8
22 24 17 9 9 12 10 10 17 20 4 -4 4 6 2 6 14 12 7 2 -7 -3 14 7 -12 -6 3 2 9 11 -1 -1 5 5 8 9 8 11 6 4 7 6 13 11 4 10 8 5 8 8 10 11 7 5 6 8 7 9 11 11 14 13 10 10 8 7 7 4 5 9 9 5 4 6 6 7 7 7 7 9 9 12 18 18 13 11 10 10 10 8 10 12 9 10 12 8 5
16 23 23 16 10 5 6 8 11 24 20 1 -8 -2 6 9 20 24 6 7 9 1 16 16 -7 -8 2 0 -4 -4 -0 9 11 2 2 9 9 13 14 12 7 -5 -3 -1 -7 0 6 7 10 10 10 9 5 4 7 8 8 10 10 9 10 7 6 9 8 6 6 5 6 10 9 5 4 5 6 7 7 7 7 5 8 16 19 14 10 11 11 10 9 9 13 14 9 7 7 6 5
14 16 21 20 14 6 2 2 8 16 19 27 22 5 -3 -9 3 15 2 26 44 5 -4 9 -1 -4 -4 -3 1 0 5 12 13 6 3 5 2 0 1 4 5 2 7 8 -2 -4 2 7 9 9 10 8 5 6 7 7 8 9 8 6 7 7 6 6 6 5 6 8 9 9 11 7 5 6 8 10 9 8 6 5 14 19 13 9 13 14 11 9 10 12 12 10 7 5 6 6 5
17 15 19 19 16 16 10 6 15 15 4 12 17 21 24 0 6 27 -5 2 37 7 -8 7 1 3 5 2 5 3 -1 -1 0 6 6 2 2 -2 -5 -1 1 2 7 11 10 8 5 7 7 5 9 8 5 7 7 7 10 10 9 7 7 7 7 5 5 6 7 12 12 9 9 7 6 9 10 12 12 10 9 10 14 12 8 11 14 12 8 9 12 10 6 6 7 6 5 6 4
23 18 17 19 19 15 8 8 21 27 21 7 -12 3 28 -4 -16 22 9 -10 12 6 -2 6 -1 1 7 3 -2 -10 -5 2 -5 -1 4 -2 -2 -4 -6 3 5 1 5 5 6 10 9 8 6 6 8 7 6 5 5 9 12 13 11 9 7 4 3 4 4 6 9 11 11 7 6 6 7 9 8 9 10 9 9 8 7 7 12 15 12 9 7 8 8 6 6 8 8 5 5 5 3
26 22 17 17 20 19 5 -5 6 18 24 30 24 7 8 4 -17 -4 18 16 14 12 7 6 5 8 9 13 14 -3 -7 3 -3 -2 6 4 7 6 1 7 10 5 5 3 2 6 9 9 8 8 8 7 7 5 6 9 9 9 10 9 7 4 4 6 6 9 12 11 9 9 9 10 10 7 5 6 9 10 10 10 9 12 16 15 11 9 7 7 7 8 10 9 5 5 5 4 4
26 22 20 18 13 19 14 -4 3 19 8 13 47 35 -1 -1 -9 -23 -4 5 -11 -11 -0 1 5 12 7 11 27 20 7 8 4 2 6 7 11 9 4 9 14 11 7 5 2 1 7 11 10 7 7 8 7 5 7 8 8 9 10 8 6 6 6 7 9 11 12 9 8 9 10 10 6 4 7 9 11 12 13 15 15 15 16 14 11 8 7 8 9 10 10 6 4 5 5 4 5
29 21 19 24 16 12 12 3 3 17 12 -6 10 37 25 1 -4 1 7 7 -5 -12 0 8 5 6 4 6 18 20 17 17 15 19 14 -1 -5 0 6 9 11 10 7 7 4 5 15 16 8 4 7 9 6 6 9 8 10 13 10 6 5 7 7 7 10 11 9 7 7 8 7 5 3 5 10 12 13 14 16 18 17 15 14 11 8 6 7 9 10 10 7 5 5 5 5 5 5
24 25 18 20 22 16 4 -2 3 8 20 14 -9 5 36 29 20 20 0 -9 8 16 20 20 5 -2 5 11 10 6 15 15 4 15 20 0 -6 5 10 7 7 7 4 9 13 17 25 16 4 5 7 8 7 7 9 8 9 10 8 7 6 7 7 8 11 9 7 7 8 8 7 5 7 11 13 13 13 15 16 16 14 11 9 7 6 6 8 10 10 8 6 5 6 5 6 5 4
19 20 20 21 31 35 9 -14 -5 3 5 17 11 -7 0 18 24 24 11 -3 -2 -1 7 20 16 5 2 5 -0 -3 17 25 7 5 9 1 2 10 9 5 6 4 2 13 19 16 17 9 4 8 8 9 9 7 10 10 7 8 8 8 6 6 7 8 9 7 6 7 8 8 7 8 11 13 13 11 11 13 11 10 10 8 6 5 5 6 9 10 8 7 6 6 6 6 5 4 4
21 15 18 23 26 36 32 2 -13 -1 2 1 18 14 -7 -1 5 5 21 35 27 1 -12 9 20 5 -0 6 4 -3 6 19 20 17 9 5 8 8 10 11 8 8 9 16 17 9 9 8 7 10 10 10 10 8 10 11 8 8 8 6 6 7 8 8 7 7 8 10 10 8 7 11 12 11 11 9 9 10 7 7 9 8 6 5 6 9 11 10 7 7 6 5 6 6 5 5 6
23 19 17 11 5 14 37 36 1 -2 17 -1 -6 13 10 11 11 -4 -4 17 39 26 -7 -2 13 6 11 18 12 10 13 11 13 18 16 11 9 5 10 15 11 13 17 15 12 9 9 10 8 11 12 12 10 9 10 11 10 8 7 7 7 8 8 8 7 9 11 11 9 8 8 10 8 7 9 9 10 9 7 9 11 9 6 6 9 11 11 9 7 6 5 5 6 5 4 5 6
21 23 22 7 -1 4 21 46 30 -1 3 1 -11 -1 10 18 20 9 0 -1 18 29 9 1 5 -2 -2 3 5 12 17 12 9 14 14 6 5 7 12 16 13 12 15 12 9 10 10 10 10 12 14 12 9 9 11 11 10 9 8 8 8 8 7 8 8 10 11 9 8 8 8 7 7 7 10 11 11 10 9 11 11 8 7 8 11 12 10 7 6 5 4 5 6 4 5 6 5
23 26 26 12 -4 -5 4 36 54 15 -20 -16 -10 -9 -1 17 22 10 7 3 5 16 11 2 4 4 4 8 14 13 7 7 11 12 8 3 9 15 11 12 15 11 8 8 9 11 12 12 12 13 13 10 8 9 11 10 9 8 8 8 8 8 8 8 9 9 9 7 7 8 7 7 9 9 10 12 12 10 11 11 10 8 7 9 11 10 8 7 5 5 5 5 5 5 5 6 6
21 28 29 19 -6 -10 -5 12 48 47 11 -9 -13 -11 -7 7 19 9 4 16 21 16 10 6 4 6 16 19 13 8 6 8 14 10 2 3 15 20 15 14 16 12 7 8 10 12 13 12 12 12 10 8 8 9 7 7 8 8 7 7 7 8 9 8 8 8 8 7 7 8 8 9 10 11 11 12 11 11 11 10 9 9 8 9 11 9 7 6 5 4 5 6 5 5 6 6 6
10 32 35 20 0 -3 -11 -11 21 45 45 28 -3 -12 -4 2 15 8 -8 3 15 13 16 19 2 -10 4 14 9 9 8 5 10 8 1 4 11 16 20 22 19 13 8 8 10 11 12 11 10 9 8 8 9 8 7 8 7 6 6 7 8 9 9 7 6 7 7 8 7 7 8 10 10 10 10 10 11 12 11 10 9 8 9 11 10 8 6 5 4 4 5 5 4 5 7 6 5
8 30 27 6 0 2 -15 -9 24 30 37 50 24 -9 -16 -13 1 6 -4 -5 -8 -3 20 32 19 7 8 11 10 10 3 1 8 8 9 15 16 15 17 21 21 14 8 8 9 10 11 9 7 7 7 8 9 9 11 10 7 5 6 8 8 8 7 5 6 8 9 9 8 8 9 9 8 8 9 10 12 12 11 10 9 8 11 12 9 7 6 5 5 4 4 4 4 6 7 6 5
22 35 25 -1 -5 3 -9 -3 27 23 11 35 46 21 -13 -26 -12 -5 -5 3 1 -2 12 20 10 4 3 3 8 8 -1 1 7 11 21 25 19 18 16 15 20 15 8 9 9 9 9 7 7 7 7 9 10 11 11 10 8 5 6 8 8 7 7 7 8 9 9 8 9 10 10 7 7 8 8 9 11 13 12 10 11 12 12 11 7 6 6 5 4 4 4 5 6 6 7 6 4
19 32 21 -3 -9 4 10 9 17 16 4 8 33 42 17 -3 5 4 -7 11 35 26 9 5 1 1 9 4 2 4 -3 -2 7 14 24 24 17 18 17 14 16 11 7 10 9 8 7 6 6 6 7 9 11 12 10 8 8 7 8 9 8 7 8 7 8 9 8 7 10 12 9 7 8 8 8 9 11 12 11 11 12 12 11 8 7 6 6 5 4 4 5 5 6 6 6 5 4
15 25 12 -4 -2 7 17 21 10 7 14 8 10 31 34 13 2 5 -2 -1 23 24 2 -2 2 12 29 18 -2 -3 -6 -3 6 1 -2 6 14 16 13 14 14 9 8 11 10 8 6 5 6 6 8 11 12 12 9 6 6 7 8 7 7 7 7 7 7 8 7 7 10 11 8 8 9 8 8 9 11 12 11 11 11 11 10 8 6 6 5 4 4 5 6 6 6 6 6 5 4
Height
5878 5880 5881 5881 5882 5884 5885 5886 5888 5889 5890 5893 5895 5896 5896 5896 5897 5896 5896 5895 5894 5893 5892 5891 5890 5890 5892 5893 5894 5894 5896 5898 5899 5901 5902 5903 5903 5903 5903 5904 5904 5903 5903 5903 5902 5902 5901 5901 5901 5901 5900 5900 5899 5898 5897 5896 5896 5895 5894 5892 5891 5889 5888 5887 5887 5886 5886 5885 5884 5884 5883 5882 5882 5881 5880 5880 5879 5879 5878 5878 5877 5876 5876 5875 5875 5875 5875 5875 5875 5875 5874 5873 5873 5872 5871 5871 5871
5876 5877 5878 5879 5880 5882 5883 5884 5886 5888 5889 5892 5893 5895 5895 5896 5897 5896 5894 5893 5892 5892 5891 5890 5889 5889 5891 5893 5893 5894 5895 5897 5898 5899 5901 5903 5902 5902 5902 5903 5904 5903 5904 5903 5902 5902 5901 5901 5900 5900 5900 5899 5899 5898 5897 5896 5895 5895 5894 5892 5891 5889 5888 5887 5886 5886 5885 5885 5884 5884 5883 5882 5882 5881 5880 5880 5879 5879 5878 5878 5877 5877 5876 5875 5875 5875 5875 5875 5874 5874 5874 5873 5873 5872 5872 5871 5870
5873 5874 5875 5876 5877 5879 5880 5881 5884 5886 5887 5891 5893 5894 5894 5896 5898 5898 5894 5892 5891 5891 5892 5890 5887 5888 5891 5893 5893 5894 5895 5896 5897 5898 5900 5902 5902 5901 5901 5902 5903 5903 5903 5903 5902 5902 5901 5900 5900 5900 5899 5899 5898 5897 5897 5896 5895 5895 5893 5892 5891 5889 5888 5887 5886 5885 5885 5885 5884 5884 5883 5882 5882 5881 5880 5880 5879 5879 5878 5878 5877 5877 5876 5875 5875 5875 5874 5874 5874 5874 5873 5873 5873 5872 5872 5871 5870
5870 5871 5872 5873 5875 5877 5877 5878 5881 5882 5885 5890 5892 5892 5893 5895 5898 5900 5895 5893 5894 5893 5894 5890 5887 5888 5891 5893 5894 5895 5895 5895 5897 5897 5899 5901 5901 5900 5901 5901 5902 5903 5903 5903 5902 5902 5901 5900 5899 5899 5899 5898 5898 5897 5896 5896 5895 5894 5893 5892 5891 5889 5888 5887 5886 5885 5885 5884 5884 5883 5883 5882 5881 5881 5880 5879 5879 5879 5878 5878 5877 5877 5876 5875 5875 5874 5874 5874 5874 5873 5873 5873 5872 5872 5872 5871 5870
5867 5868 5869 5870 5872 5873 5874 5875 5878 5880 5883 5888 5890 5890 5891 5892 5896 5898 5896 5896 5895 5893 5893 5890 5888 5889 5890 5892 5892 5894 5895 5895 5896 5896 5898 5900 5900 5900 5900 5901 5902 5902 5903 5902 5902 5901 5901 5900 5899 5899 5898 5898 5897 5897 5896 5895 5895 5894 5893 5891 5890 5889 5887 5886 5885 5885 5884 5884 5883 5883 5882 5882 5881 5880 5880 5879 5879 5879 5878 5877 5877 5877 5876 5875 5875 5874 5874 5874 5873 5873 5873 5872 5872 5872 5871 5871 5870
5863 5865 5865 5866 5869 5869 5870 5873 5876 5879 5883 5887 5887 5887 5889 5891 5894 5895 5895 5894 5894 5892 5890 5888 5888 5890 5890 5890 5891 5892 5893 5894 5895 5894 5896 5899 5900 5900 5900 5900 5901 5901 5902 5902 5901 5901 5900 5899 5899 5898 5898 5898 5897 5896 5896 5895 5894 5893 5892 5890 5889 5888 5887 5886 5885 5884 5883 5883 5883 5882 5882 5881 5881 5880 5879 5878 5878 5878 5878 5877 5877 5876 5876 5875 5875 5874 5874 5873 5873 5873 5873 5872 5872 5871 5871 5870 5870
5860 5861 5861 5863 5866 5866 5868 5870 5873 5876 5881 5885 5883 5883 5887 5891 5892 5894 5894 5892 5892 5891 5888 5887 5887 5888 5888 5889 5890 5890 5891 5893 5893 5893 5894 5897 5898 5899 5900 5900 5900 5900 5901 5901 5900 5900 5900 5899 5898 5898 5897 5897 5896 5896 5895 5894 5893 5892 5890 5890 5888 5887 5886 5885 5884 5884 5883 5882 5882 5881 5881 5881 5880 5880 5879 5878 5877 5877 5877 5877 5876 5876 5876 5875 5875 5874 5874 5873 5873 5873 5873 5872 5872 5871 5870 5870 5869
5857 5857 5858 5859 5862 5863 5864 5866 5868 5871 5877 5881 5879 5878 5883 5888 5889 5891 5892 5890 5890 5889 5886 5884 5884 5886 5887 5887 5887 5888 5889 5890 5891 5892 5893 5895 5897 5899 5900 5900 5899 5899 5900 5900 5899 5899 5899 5898 5898 5897 5897 5897 5896 5895 5894 5893 5892 5890 5889 5888 5888 5886 5886 5885 5884 5883 5882 5881 5881 5880 5880 5880 5880 5879 5878 5878 5877 5877 5877 5876 5876 5876 5875 5875 5874 5874 5874 5873 5873 5873 5872 5872 5871 5871 5870 5870 5869
5855 5855 5855 5856 5858 5860 5861 5863 5865 5869 5874 5878 5877 5875 5879 5885 5887 5889 5890 5888 5888 5887 5884 5881 5882 5884 5885 5885 5885 5886 5888 5888 5889 5891 5892 5893 5895 5897 5899 5899 5898 5898 5899 5899 5899 5898 5898 5898 5897 5897 5896 5896 5895 5894 5893 5892 5891 5889 5888 5887 5886 5885 5885 5884 5883 5882 5881 5881 5880 5880 5879 5879 5879 5879 5878 5877 5876 5876 5876 5876 5875 5875 5875 5875 5874 5874 5873 5873 5873 5873 5872 5872 5871 5870 5870 5869 5869
5851 5853 5853 5852 5854 5856 5858 5860 5861 5867 5873 5874 5873 5874 5877 5882 5885 5886 5888 5888 5887 5886 5883 5879 5879 5882 5883 5883 5883 5884 5886 5887 5888 5889 5890 5892 5894 5896 5897 5898 5898 5897 5897 5898 5898 5898 5897 5897 5897 5896 5896 5895 5894 5893 5892 5891 5890 5888 5887 5886 5885 5884 5884 5883 5883 5882 5881 5880 5880 5879 5879 5879 5879 5878 5877 5877 5876 5876 5875 5875 5875 5875 5874 5874 5874 5873 5873 5873 5873 5872 5872 5871 5871 5870 5870 5869 5869
5847 5849 5849 5849 5850 5852 5853 5854 5857 5864 5871 5871 5870 5872 5874 5878 5882 5883 5885 5887 5885 5885 5882 5877 5877 5881 5882 5883 5883 5883 5884 5885 5886 5887 5887 5889 5892 5894 5895 5896 5896 5896 5895 5896 5897 5897 5896 5896 5896 5895 5895 5894 5893 5892 5891 5890 5889 5887 5886 5885 5884 5883 5883 5883 5882 5881 5881 5880 5879 5879 5878 5878 5878 5877 5877 5876 5876 5875 5875 5874 5874 5874 5874 5874 5873 5873 5873 5872 5872 5872 5871 5871 5870 5870 5869 5869 5869
5843 5845 5847 5847 5846 5848 5849 5850 5854 5860 5865 5867 5868 5870 5869 5872 5877 5880 5883 5885 5884 5884 5880 5875 5875 5877 5880 5882 5882 5882 5882 5883 5884 5885 5886 5887 5890 5892 5892 5893 5894 5894 5893 5895 5896 5896 5895 5895 5895 5894 5894 5893 5892 5891 5890 5889 5888 5886 5885 5884 5882 5882 5882 5882 5881 5881 5880 5879 5878 5878 5878 5877 5877 5877 5876 5875 5875 5875 5874 5874 5873 5873 5873 5873 5873 5872 5872 5872 5872 5871 5871 5870 5870 5869 5869 5869 5868
5839 5842 5844 5844 5844 5845 5846 5848 5852 5856 5860 5864 5866 5869 5868 5869 5874 5877 5880 5881 5881 5880 5876 5873 5871 5873 5877 5880 5881 5881 5880 5882 5883 5883 5884 5886 5889 5890 5890 5891 5892 5892 5892 5893 5895 5895 5894 5895 5894 5893 5893 5892 5891 5890 5889 5888 5887 5886 5884 5883 5882 5881 5881 5881 5881 5880 5879 5879 5878 5877 5877 5877 5876 5876 5875 5875 5874 5874 5873 5873 5873 5873 5873 5872 5872 5872 5871 5871 5871 5871 5870 5870 5869 5868 5868 5868 5868
5836 5838 5840 5842 5841 5843 5845 5846 5850 5853 5857 5861 5863 5868 5869 5867 5869 5872 5876 5878 5878 5876 5873 5871 5869 5870 5873 5876 5878 5879 5879 5880 5881 5882 5883 5884 5886 5888 5888 5890 5891 5890 5890 5891 5893 5894 5893 5893 5893 5892 5892 5891 5890 5889 5889 5887 5887 5885 5884 5883 5882 5881 5881 5880 5880 5879 5879 5878 5877 5876 5876 5875 5875 5875 5874 5874 5873 5873 5872 5872 5872 5872 5872 5872 5871 5871 5871 5871 5870 5870 5869 5869 5868 5867 5867 5867 5867
5832 5833 5836 5838 5838 5839 5842 5844 5847 5850 5855 5857 5859 5864 5867 5865 5865 5868 5874 5876 5876 5874 5872 5870 5868 5868 5870 5872 5875 5877 5878 5878 5878 5879 5880 5881 5883 5885 5886 5889 5890 5889 5889 5889 5891 5892 5892 5892 5892 5892 5891 5890 5889 5889 5888 5887 5886 5885 5884 5882 5881 5881 5880 5880 5879 5879 5878 5878 5877 5875 5875 5874 5874 5874 5874 5873 5872 5872 5871 5871 5871 5871 5871 5871 5870 5870 5870 5870 5869 5869 5869 5868 5867 5867 5866 5866 5867
5827 5828 5830 5832 5834 5836 5838 5841 5845 5848 5854 5858 5859 5861 5863 5864 5865 5866 5870 5873 5872 5870 5868 5866 5865 5867 5869 5871 5874 5875 5876 5875 5875 5877 5878 5879 5880 5882 5884 5887 5889 5889 5888 5888 5889 5890 5891 5891 5891 5890 5890 5889 5888 5888 5887 5886 5885 5884 5883 5882 5881 5880 5880 5879 5879 5878 5878 5877 5876 5875 5874 5873 5872 5873 5872 5872 5871 5871 5870 5870 5870 5870 5870 5870 5870 5870 5869 5869 5868 5868 5867 5867 5866 5866 5866 5866 5865
5822 5822 5824 5827 5830 5832 5835 5840 5843 5846 5853 5858 5858 5859 5859 5861 5862 5862 5865 5868 5868 5864 5862 5863 5862 5864 5867 5868 5870 5872 5873 5872 5873 5874 5876 5876 5877 5879 5881 5885 5887 5887 5888 5887 5888 5889 5890 5890 5890 5890 5888 5888 5887 5887 5886 5885 5884 5883 5882 5881 5880 5880 5879 5879 5878 5878 5877 5876 5875 5874 5873 5872 5871 5871 5871 5871 5870 5870 5870 5869 5869 5869 5869 5869 5869 5868 5868 5867 5867 5866 5866 5865 5865 5865 5864 5864 5864
5816 5817 5820 5821 5825 5829 5833 5838 5841 5845 5850 5853 5854 5855 5856 5857 5858 5859 5859 5861 5864 5863 5861 5861 5860 5862 5865 5866 5868 5869 5870 5870 5871 5872 5873 5874 5875 5877 5879 5882 5885 5886 5886 5887 5887 5887 5888 5889 5889 5888 5888 5887 5886 5885 5885 5884 5883 5882 5881 5880 5880 5879 5878 5878 5877 5877 5876 5875 5874 5873 5872 5871 5870 5869 5869 5869 5869 5869 5869 5869 5869 5869 5868 5868 5867 5867 5867 5866 5865 5865 5864 5864 5863 5863 5863 5863 5863
5810 5813 5815 5817 5822 5826 5830 5835 5839 5842 5843 5847 5848 5850 5852 5852 5854 5856 5856 5858 5862 5864 5860 5857 5857 5860 5864 5865 5867 5868 5868 5868 5869 5870 5870 5871 5873 5875 5877 5879 5882 5883 5884 5885 5886 5886 5886 5887 5887 5887 5886 5885 5885 5884 5883 5883 5882 5881 5879 5879 5878 5878 5877 5876 5876 5875 5874 5874 5873 5872 5871 5870 5869 5868 5868 5868 5868 5868 5868 5868 5868 5868 5867 5867 5866 5866 5865 5865 5864 5864 5863 5862 5862 5862 5861 5862 5862
5805 5808 5808 5812 5820 5822 5824 5831 5836 5837 5838 5840 5841 5844 5847 5847 5850 5852 5852 5854 5857 5860 5858 5854 5853 5858 5863 5864 5864 5865 5865 5865 5866 5867 5868 5869 5871 5873 5875 5877 5879 5880 5882 5883 5885 5885 5885 5885 5885 5885 5885 5884 5884 5883 5882 5881 5880 5879 5878 5877 5877 5876 5875 5875 5875 5874 5873 5873 5872 5871 5870 5869 5868 5868 5868 5868 5868 5868 5867 5867 5867 5867 5866 5866 5865 5864 5864 5863 5863 5862 5861 5861 5861 5860 5860 5861 5861
5801 5801 5802 5809 5817 5816 5818 5826 5833 5833 5834 5835 5835 5839 5842 5843 5846 5848 5849 5851 5852 5855 5857 5854 5851 5854 5860 5862 5862 5862 5862 5862 5863 5864 5866 5868 5870 5871 5873 5875 5876 5878 5879 5880 5881 5883 5884 5884 5884 5884 5884 5883 5883 5881 5880 5879 5878 5877 5876 5876 5875 5875 5874 5873 5873 5872 5871 5871 5870 5869 5868 5868 5867 5867 5868 5869 5869 5868 5867 5866 5866 5866 5865 5864 5864 5863 5862 5862 5861 5861 5860 5860 5860 5859 5859 5859 5859
5796 5796 5799 5805 5811 5813 5815 5822 5828 5829 5830 5832 5832 5835 5839 5841 5843 5844 5845 5848 5850 5852 5855 5855 5851 5850 5855 5860 5860 5860 5860 5860 5861 5862 5863 5866 5868 5869 5871 5873 5874 5875 5876 5877 5878 5880 5881 5882 5882 5883 5883 5882 5882 5880 5878 5877 5876 5875 5875 5874 5874 5873 5872 5872 5871 5870 5870 5869 5868 5868 5867 5866 5866 5867 5868 5869 5867 5867 5866 5865 5865 5865 5864 5864 5863 5862 5861 5861 5860 5860 5859 5859 5859 5858 5858 5857 5857
5790 5792 5796 5800 5805 5809 5812 5818 5823 5824 5826 5829 5829 5831 5835 5838 5840 5842 5844 5846 5849 5851 5852 5854 5852 5850 5852 5855 5857 5858 5859 5858 5859 5861 5861 5863 5866 5868 5869 5870 5872 5873 5874 5875 5875 5877 5878 5879 5880 5881 5881 5881 5880 5878 5877 5875 5874 5874 5873 5873 5872 5871 5870 5870 5869 5869 5868 5867 5867 5866 5866 5865 5866 5867 5867 5867 5865 5865 5865 5864 5864 5863 5863 5862 5862 5861 5860 5859 5859 5858 5858 5857 5858 5857 5857 5856 5856
5785 5788 5793 5795 5799 5805 5810 5814 5818 5821 5824 5826 5828 5828 5830 5835 5837 5839 5843 5845 5848 5850 5850 5851 5850 5849 5849 5852 5854 5855 5856 5856 5857 5858 5859 5861 5863 5866 5867 5868 5870 5870 5872 5873 5873 5874 5876 5876 5877 5878 5879 5878 5878 5877 5876 5874 5873 5872 5872 5871 5870 5869 5869 5868 5868 5867 5866 5865 5865 5864 5864 5865 5866 5867 5866 5864 5864 5864 5864 5864 5863 5862 5862 5861 5860 5860 5858 5858 5858 5857 5857 5856 5856 5856 5856 5855 5855
5779 5783 5788 5792 5794 5800 5807 5811 5813 5817 5821 5824 5825 5825 5826 5831 5835 5835 5838 5842 5847 5848 5848 5849 5847 5846 5847 5849 5851 5851 5853 5854 5855 5856 5857 5859 5861 5864 5865 5866 5868 5869 5870 5871 5871 5872 5873 5874 5874 5875 5876 5875 5875 5875 5874 5873 5871 5870 5870 5869 5868 5868 5868 5867 5867 5866 5865 5864 5863 5863 5864 5865 5865 5865 5863 5862 5862 5863 5863 5863 5862 5861 5860 5859 5858 5858 5857 5856 5857 5856 5855 5855 5855 5855 5855 5854 5854
5774 5780 5784 5788 5789 5794 5801 5805 5809 5813 5818 5821 5822 5823 5824 5828 5832 5831 5833 5838 5842 5845 5846 5847 5845 5843 5844 5846 5848 5849 5851 5852 5853 5854 5855 5857 5860 5863 5864 5865 5866 5867 5869 5869 5869 5870 5871 5872 5872 5872 5873 5872 5873 5873 5873 5871 5870 5869 5868 5867 5867 5867 5867 5866 5865 5864 5863 5862 5861 5862 5863 5864 5863 5862 5861 5861 5861 5861 5861 5861 5860 5859 5858 5857 5856 5856 5855 5855 5855 5854 5854 5854 5854 5854 5853 5852 5852
5772 5776 5779 5782 5785 5789 5794 5799 5804 5808 5813 5817 5819 5822 5823 5825 5827 5829 5832 5836 5838 5841 5844 5845 5843 5841 5841 5842 5844 5847 5850 5851 5852 5853 5853 5856 5859 5861 5862 5863 5865 5866 5867 5867 5868 5868 5869 5870 5869 5869 5870 5870 5871 5871 5870 5869 5868 5867 5867 5866 5866 5866 5865 5864 5863 5862 5861 5860 5860 5862 5862 5862 5861 5860 5859 5860 5860 5859 5859 5858 5857 5856 5856 5855 5854 5854 5853 5853 5853 5852 5852 5852 5852 5851 5850 5850 5849
5766 5770 5773 5775 5780 5784 5787 5793 5799 5802 5806 5812 5816 5819 5820 5821 5822 5826 5830 5834 5836 5838 5841 5842 5841 5839 5837 5838 5840 5842 5849 5850 5849 5850 5851 5853 5857 5859 5860 5862 5863 5864 5865 5865 5866 5866 5867 5868 5867 5867 5868 5868 5868 5868 5867 5867 5866 5866 5866 5865 5864 5864 5863 5862 5861 5860 5859 5858 5859 5861 5860 5860 5860 5859 5858 5858 5858 5857 5856 5855 5855 5854 5854 5853 5852 5852 5851 5851 5850 5850 5850 5850 5849 5848 5848 5848 5848
5758 5762 5764 5767 5773 5777 5781 5787 5793 5797 5800 5807 5813 5814 5814 5815 5818 5824 5827 5830 5834 5836 5838 5839 5838 5838 5836 5836 5836 5839 5846 5848 5847 5848 5849 5851 5854 5856 5858 5860 5861 5862 5863 5863 5864 5864 5865 5865 5865 5865 5866 5866 5866 5865 5865 5864 5864 5864 5864 5863 5862 5861 5861 5860 5859 5858 5857 5857 5859 5859 5858 5858 5859 5858 5856 5856 5856 5855 5854 5853 5853 5853 5852 5851 5850 5850 5849 5848 5848 5848 5848 5848 5847 5846 5846 5846 5846
5750 5754 5756 5760 5765 5767 5774 5782 5787 5791 5795 5802 5807 5805 5807 5812 5816 5822 5825 5826 5830 5832 5836 5837 5836 5836 5834 5833 5834 5837 5843 5845 5846 5847 5847 5849 5851 5854 5855 5857 5859 5860 5861 5862 5861 5861 5863 5863 5863 5863 5864 5863 5863 5862 5862 5862 5862 5862 5861 5861 5860 5859 5859 5858 5858 5857 5856 5856 5857 5856 5856 5857 5857 5856 5855 5855 5854 5852 5851 5851 5851 5851 5850 5849 5848 5848 5848 5847 5847 5847 5847 5846 5846 5845 5845 5844 5844
5742 5746 5748 5752 5756 5759 5768 5775 5780 5785 5789 5796 5799 5798 5802 5809 5813 5819 5822 5823 5826 5828 5831 5833 5834 5834 5832 5830 5831 5834 5839 5843 5845 5845 5845 5847 5849 5851 5853 5854 5857 5858 5859 5860 5859 5860 5861 5861 5861 5861 5861 5861 5861 5860 5860 5860 5860 5859 5859 5858 5858 5858 5857 5857 5856 5855 5856 5856 5855 5854 5854 5855 5855 5855 5854 5853 5851 5850 5849 5849 5848 5848 5848 5847 5846 5846 5846 5845 5846 5846 5846 5845 5844 5844 5843 5842 5841
5734 5737 5739 5744 5749 5756 5764 5769 5774 5778 5784 5791 5792 5792 5796 5803 5808 5814 5818 5820 5823 5825 5827 5830 5831 5831 5829 5828 5828 5831 5836 5840 5842 5843 5843 5845 5847 5849 5851 5852 5854 5856 5857 5858 5858 5858 5859 5859 5859 5859 5858 5858 5858 5858 5858 5858 5858 5857 5857 5856 5856 5855 5855 5854 5854 5854 5854 5854 5854 5854 5853 5853 5853 5853 5852 5851 5850 5849 5848 5848 5847 5846 5846 5846 5844 5843 5843 5843 5844 5844 5844 5843 5842 5841 5840 5839 5838
5726 5728 5732 5739 5744 5751 5757 5762 5768 5774 5780 5784 5785 5787 5791 5796 5803 5810 5813 5815 5819 5822 5823 5826 5828 5828 5826 5826 5826 5829 5833 5836 5838 5840 5841 5842 5844 5846 5848 5849 5851 5853 5855 5856 5856 5857 5857 5857 5857 5856 5856 5856 5856 5856 5856 5855 5855 5855 5855 5854 5853 5853 5853 5852 5852 5852 5852 5852 5852 5852 5852 5851 5851 5851 5850 5849 5849 5848 5847 5846 5845 5844 5843 5843 5843 5841 5841 5842 5843 5842 5841 5840 5839 5839 5838 5837 5836
5719 5724 5730 5736 5741 5746 5750 5756 5763 5769 5774 5777 5780 5783 5785 5792 5800 5805 5807 5809 5815 5818 5820 5823 5824 5824 5823 5824 5825 5827 5830 5832 5835 5838 5839 5840 5841 5843 5845 5845 5847 5850 5852 5853 5854 5855 5855 5855 5855 5854 5854 5854 5854 5854 5853 5853 5853 5853 5853 5852 5851 5851 5850 5850 5850 5850 5850 5850 5850 5850 5850 5849 5849 5849 5848 5847 5847 5846 5844 5843 5842 5841 5840 5840 5840 5839 5839 5840 5840 5839 5838 5839 5837 5836 5836 5835 5835
5715 5720 5726 5732 5737 5741 5744 5750 5758 5764 5768 5772 5776 5779 5781 5788 5794 5799 5802 5807 5811 5814 5817 5819 5820 5821 5820 5822 5823 5824 5826 5828 5832 5835 5835 5836 5838 5840 5841 5842 5844 5847 5849 5849 5851 5852 5853 5853 5853 5852 5851 5851 5851 5851 5851 5851 5851 5851 5850 5850 5849 5849 5848 5848 5848 5848 5848 5848 5848 5848 5848 5847 5847 5847 5846 5845 5845 5844 5842 5841 5840 5840 5839 5838 5838 5837 5838 5838 5837 5836 5837 5838 5836 5834 5834 5834 5833
5712 5717 5722 5727 5731 5735 5740 5747 5754 5760 5765 5769 5773 5776 5779 5783 5789 5794 5800 5805 5809 5811 5813 5814 5816 5817 5817 5819 5821 5821 5822 5825 5829 5830 5831 5832 5835 5837 5839 5840 5842 5844 5846 5847 5848 5849 5850 5850 5850 5849 5849 5849 5849 5849 5849 5849 5849 5849 5848 5847 5847 5847 5847 5847 5846 5846 5846 5846 5846 5846 5845 5845 5845 5845 5844 5843 5843 5842 5841 5840 5839 5838 5838 5838 5837 5837 5837 5836 5835 5835 5836 5836 5835 5834 5833 5833 5833
5705 5711 5716 5722 5726 5731 5737 5744 5750 5757 5761 5766 5771 5773 5775 5778 5784 5791 5796 5800 5803 5806 5809 5810 5811 5812 5813 5815 5818 5819 5819 5821 5823 5824 5827 5829 5831 5835 5838 5839 5841 5842 5844 5844 5845 5847 5847 5847 5847 5847 5847 5847 5847 5846 5846 5847 5847 5846 5846 5845 5845 5845 5845 5845 5845 5845 5845 5844 5844 5844 5844 5843 5843 5842 5842 5841 5840 5839 5839 5838 5838 5837 5837 5837 5836 5836 5835 5834 5834 5835 5836 5835 5834 5833 5832 5832 5832
5697 5703 5709 5714 5719 5725 5733 5739 5746 5753 5757 5762 5768 5769 5770 5775 5781 5786 5790 5793 5796 5800 5803 5805 5807 5808 5809 5810 5814 5816 5816 5816 5817 5819 5823 5826 5829 5834 5835 5836 5838 5838 5840 5841 5842 5844 5844 5844 5845 5845 5845 5845 5843 5843 5844 5844 5844 5844 5843 5842 5843 5843 5843 5843 5843 5843 5843 5843 5842 5842 5842 5842 5841 5841 5840 5839 5838 5837 5836 5836 5836 5836 5836 5836 5835 5835 5834 5833 5834 5835 5835 5833 5832 5832 5831 5831 5831
5690 5695 5701 5706 5712 5720 5728 5734 5740 5747 5751 5756 5763 5765 5766 5772 5777 5781 5786 5789 5792 5796 5798 5799 5801 5803 5804 5806 5809 5812 5812 5812 5813 5815 5819 5823 5827 5829 5830 5833 5835 5835 5836 5837 5839 5840 5841 5842 5842 5843 5843 5841 5840 5840 5841 5842 5842 5842 5841 5841 5841 5841 5841 5841 5841 5841 5841 5841 5840 5840 5840 5840 5839 5839 5838 5836 5835 5835 5834 5834 5834 5833 5833 5834 5833 5833 5832 5833 5833 5833 5833 5832 5830 5830 5830 5830 5830
5680 5686 5693 5698 5706 5714 5720 5728 5735 5740 5746 5751 5759 5762 5763 5769 5773 5776 5782 5785 5789 5792 5793 5795 5796 5798 5800 5802 5804 5806 5809 5809 5809 5811 5814 5818 5823 5826 5827 5830 5831 5832 5833 5835 5837 5837 5839 5839 5839 5839 5839 5838 5837 5837 5838 5839 5840 5839 5838 5839 5839 5838 5839 5840 5840 5839 5839 5839 5839 5839 5838 5838 5837 5836 5835 5834 5833 5832 5832 5832 5832 5831 5831 5831 5831 5831 5831 5832 5832 5831 5831 5830 5829 5828 5829 5829 5828
5672 5678 5685 5693 5703 5709 5716 5725 5731 5736 5742 5747 5754 5757 5758 5763 5767 5772 5777 5779 5782 5786 5788 5789 5791 5794 5797 5799 5801 5802 5804 5805 5805 5806 5809 5813 5819 5823 5825 5826 5828 5830 5831 5833 5834 5834 5836 5837 5836 5836 5835 5834 5834 5835 5836 5837 5837 5836 5836 5837 5836 5836 5837 5837 5838 5838 5837 5837 5837 5837 5836 5836 5835 5834 5833 5832 5831 5831 5830 5830 5830 5829 5829 5829 5829 5829 5830 5830 5830 5829 5828 5828 5828 5827 5827 5827 5827
5667 5672 5680 5691 5700 5706 5713 5721 5728 5732 5735 5741 5749 5750 5750 5757 5761 5765 5771 5773 5776 5780 5783 5784 5786 5791 5794 5796 5797 5798 5800 5801 5801 5803 5805 5808 5813 5819 5822 5824 5826 5828 5829 5830 5830 5831 5833 5833 5832 5832 5832 5831 5831 5832 5833 5834 5834 5833 5834 5834 5834 5835 5835 5835 5835 5835 5835 5835 5835 5834 5834 5833 5832 5831 5831 5830 5829 5829 5828 5828 5828 5827 5827 5827 5827 5828 5828 5828 5827 5827 5826 5826 5827 5826 5826 5826 5825
5661 5668 5679 5688 5695 5702 5709 5716 5722 5725 5727 5734 5743 5743 5744 5751 5754 5758 5766 5769 5771 5775 5778 5781 5783 5786 5790 5793 5794 5794 5796 5798 5799 5800 5802 5804 5808 5813 5820 5822 5823 5825 5826 5826 5827 5828 5829 5828 5828 5828 5828 5828 5829 5829 5830 5831 5831 5831 5831 5832 5833 5833 5833 5833 5833 5833 5833 5833 5832 5832 5831 5831 5830 5829 5829 5828 5827 5827 5827 5826 5826 5826 5826 5825 5825 5825 5825 5825 5825 5825 5825 5825 5825 5825 5824 5824 5823
5656 5667 5677 5683 5689 5697 5704 5709 5714 5721 5727 5730 5735 5740 5742 5744 5748 5753 5760 5764 5767 5770 5773 5776 5778 5781 5786 5790 5791 5792 5793 5794 5796 5797 5799 5802 5804 5810 5816 5818 5818 5820 5821 5822 5823 5824 5824 5824 5825 5825 5825 5825 5826 5827 5827 5828 5828 5828 5829 5830 5831 5831 5831 5831 5832 5831 5831 5830 5830 5830 5829 5828 5828 5827 5826 5826 5825 5825 5825 5824 5824 5823 5823 5823 5823 5823 5823 5823 5823 5823 5824 5824 5823 5823 5823 5822 5822
5655 5666 5673 5678 5685 5693 5700 5704 5709 5717 5723 5724 5728 5736 5737 5736 5742 5749 5755 5759 5761 5763 5767 5770 5773 5777 5781 5784 5787 5788 5789 5791 5793 5794 5796 5800 5803 5807 5811 5812 5813 5815 5817 5819 5820 5819 5819 5820 5821 5822 5822 5822 5823 5824 5824 5825 5825 5826 5827 5828 5829 5828 5828 5829 5829 5829 5828 5828 5828 5827 5827 5826 5825 5825 5824 5824 5823 5823 5823 5822 5822 5821 5822 5822 5821 5821 5821 5822 5822 5822 5822 5822 5822 5821 5821 5820 5820
5655 5663 5668 5674 5680 5689 5696 5700 5705 5711 5713 5715 5723 5730 5731 5731 5736 5743 5748 5752 5755 5757 5761 5766 5770 5773 5776 5780 5782 5783 5785 5788 5789 5790 5793 5797 5800 5804 5806 5807 5809 5811 5813 5815 5816 5814 5815 5816 5817 5818 5819 5819 5820 5821 5821 5822 5823 5824 5825 5826 5826 5826 5826 5826 5826 5826 5826 5826 5825 5825 5824 5823 5823 5822 5822 5821 5821 5820 5821 5820 5820 5820 5820 5820 5820 5820 5820 5820 5821 5821 5821 5821 5821 5820 5819 5819 5818
5653 5659 5664 5670 5676 5684 5691 5696 5702 5704 5703 5708 5718 5725 5727 5727 5730 5737 5741 5744 5749 5754 5758 5763 5767 5769 5772 5775 5777 5778 5781 5784 5786 5787 5790 5794 5797 5799 5800 5802 5806 5808 5810 5812 5811 5810 5811 5812 5813 5815 5815 5816 5817 5818 5818 5819 5821 5822 5823 5823 5824 5824 5824 5824 5824 5824 5824 5823 5823 5822 5821 5821 5820 5820 5820 5819 5819 5819 5819 5819 5818 5818 5818 5818 5818 5819 5819 5819 5819 5819 5819 5819 5819 5819 5818 5817 5816
5650 5654 5661 5666 5672 5680 5685 5690 5695 5693 5694 5704 5714 5722 5725 5722 5724 5732 5737 5741 5748 5753 5756 5759 5762 5765 5768 5771 5773 5774 5777 5780 5782 5785 5788 5791 5793 5794 5796 5800 5803 5805 5807 5808 5807 5807 5807 5808 5810 5811 5812 5813 5814 5814 5815 5817 5819 5820 5821 5821 5822 5822 5822 5822 5821 5821 5821 5821 5820 5820 5819 5819 5818 5818 5818 5817 5817 5817 5817 5817 5817 5817 5817 5817 5817 5817 5818 5818 5818 5818 5818 5818 5817 5817 5816 5815 5814
5645 5649 5656 5662 5668 5673 5676 5681 5685 5686 5693 5702 5710 5718 5719 5717 5722 5729 5733 5738 5745 5750 5753 5756 5759 5762 5766 5768 5769 5771 5774 5776 5779 5782 5785 5787 5789 5790 5792 5797 5800 5802 5804 5804 5804 5804 5804 5804 5806 5808 5809 5810 5811 5811 5813 5814 5816 5817 5818 5819 5820 5820 5819 5819 5819 5819 5819 5818 5818 5817 5817 5816 5816 5816 5816 5815 5815 5816 5815 5815 5815 5815 5815 5815 5816 5816 5816 5816 5816 5816 5816 5816 5815 5815 5814 5813 5812
5640 5644 5650 5656 5662 5666 5669 5675 5680 5685 5693 5700 5706 5712 5713 5715 5720 5725 5730 5736 5741 5746 5750 5754 5757 5761 5763 5766 5767 5768 5771 5774 5776 5779 5781 5783 5785 5786 5789 5794 5797 5799 5800 5800 5800 5800 5800 5801 5803 5804 5806 5808 5808 5809 5810 5811 5813 5814 5815 5816 5817 5817 5817 5816 5816 5816 5816 5816 5815 5815 5814 5814 5814 5814 5814 5814 5814 5814 5814 5813 5814 5814 5814 5814 5814 5815 5815 5815 5815 5815 5814 5814 5813 5812 5812 5811 5810
5637 5642 5648 5653 5658 5663 5669 5674 5678 5684 5692 5697 5702 5704 5707 5712 5716 5721 5729 5736 5739 5742 5746 5751 5756 5759 5761 5762 5763 5763 5766 5769 5772 5775 5777 5779 5781 5783 5787 5791 5793 5795 5796 5796 5797 5797 5798 5798 5799 5802 5805 5806 5806 5806 5807 5808 5810 5811 5813 5813 5814 5814 5814 5814 5813 5814 5814 5813 5813 5813 5812 5812 5812 5812 5812 5812 5812 5812 5811 5811 5812 5812 5812 5813 5813 5813 5813 5813 5813 5813 5812 5812 5811 5810 5810 5809 5808
5634 5641 5645 5650 5656 5663 5669 5674 5679 5686 5689 5692 5696 5698 5703 5711 5716 5722 5729 5733 5736 5740 5743 5748 5753 5756 5757 5757 5758 5759 5761 5765 5768 5771 5773 5776 5779 5781 5785 5789 5790 5791 5792 5792 5794 5794 5795 5795 5797 5800 5803 5803 5803 5803 5804 5806 5808 5809 5810 5811 5811 5811 5812 5811 5811 5811 5811 5811 5811 5811 5810 5810 5810 5810 5810 5810 5810 5810 5809 5809 5810 5810 5811 5811 5811 5811 5811 5811 5811 5811 5810 5810 5809 5808 5807 5807 5806
5632 5636 5641 5650 5658 5663 5667 5671 5677 5683 5684 5685 5693 5698 5704 5710 5714 5719 5726 5729 5731 5736 5741 5744 5748 5752 5752 5751 5753 5755 5757 5762 5765 5768 5770 5773 5777 5779 5782 5786 5787 5788 5788 5789 5791 5791 5792 5793 5795 5799 5800 5800 5800 5800 5802 5804 5806 5807 5808 5808 5808 5809 5809 5809 5808 5809 5809 5809 5809 5808 5808 5808 5808 5808 5808 5808 5808 5807 5807 5807 5808 5808 5809 5809 5809 5809 5809 5809 5809 5809 5808 5807 5807 5806 5805 5804 5804
5628 5632 5641 5654 5660 5661 5664 5669 5673 5676 5678 5682 5690 5698 5702 5706 5709 5714 5720 5725 5727 5731 5737 5739 5744 5748 5747 5747 5749 5751 5755 5759 5761 5764 5767 5770 5774 5777 5780 5783 5784 5785 5785 5786 5787 5787 5789 5791 5794 5796 5797 5797 5798 5798 5800 5802 5804 5805 5805 5805 5806 5806 5806 5806 5806 5807 5807 5806 5806 5806 5806 5806 5806 5806 5806 5806 5806 5806 5806 5806 5806 5806 5807 5807 5807 5807 5807 5807 5807 5806 5806 5805 5804 5804 5803 5802 5801
5627 5632 5641 5650 5655 5657 5660 5664 5667 5671 5676 5680 5688 5695 5698 5701 5705 5710 5716 5719 5723 5729 5733 5736 5740 5744 5744 5745 5747 5748 5752 5755 5758 5761 5764 5768 5772 5775 5778 5780 5780 5780 5780 5782 5783 5784 5787 5789 5791 5792 5793 5794 5795 5796 5798 5800 5801 5802 5803 5803 5804 5804 5804 5804 5804 5804 5804 5804 5804 5804 5804 5804 5803 5804 5804 5804 5804 5804 5804 5804 5804 5805 5805 5805 5805 5805 5805 5805 5804 5804 5803 5803 5802 5802 5801 5800 5799
5629 5634 5639 5643 5649 5655 5659 5661 5664 5669 5675 5680 5686 5690 5693 5698 5703 5708 5713 5717 5721 5727 5730 5732 5738 5740 5740 5742 5744 5746 5749 5752 5755 5758 5761 5766 5770 5772 5775 5776 5776 5776 5777 5779 5780 5782 5784 5786 5788 5789 5791 5792 5793 5794 5796 5797 5798 5799 5800 5801 5801 5802 5802 5802 5802 5802 5802 5802 5802 5802 5802 5802 5801 5802 5802 5802 5802 5802 5802 5802 5802 5803 5803 5803 5803 5803 5803 5802 5802 5801 5801 5801 5800 5799 5798 5797 5797
5627 5631 5636 5640 5646 5652 5656 5660 5663 5668 5673 5679 5684 5686 5689 5697 5702 5706 5713 5716 5720 5725 5727 5730 5735 5736 5738 5739 5741 5744 5747 5750 5754 5755 5759 5764 5767 5768 5770 5770 5771 5772 5773 5776 5777 5779 5781 5783 5785 5787 5788 5789 5791 5792 5793 5794 5796 5797 5798 5799 5799 5800 5800 5800 5800 5800 5800 5800 5799 5799 5799 5799 5799 5800 5800 5800 5800 5800 5800 5800 5800 5800 5800 5800 5800 5800 5800 5800 5799 5799 5799 5798 5797 5796 5796 5795 5794
5625 5630 5634 5639 5644 5649 5653 5657 5662 5667 5672 5677 5681 5683 5688 5695 5699 5705 5711 5714 5718 5722 5725 5729 5732 5733 5735 5737 5739 5742 5745 5749 5751 5753 5757 5761 5763 5764 5765 5766 5767 5768 5770 5773 5775 5777 5779 5780 5782 5783 5785 5787 5788 5789 5790 5792 5793 5795 5796 5796 5796 5797 5797 5797 5798 5798 5798 5797 5797 5797 5797 5797 5797 5797 5798 5797 5797 5797 5798 5798 5798 5798 5798 5798 5798 5798 5798 5797 5797 5797 5796 5795 5794 5794 5793 5792 5791